Theta_e
329 329 329 327 327 328 329 330 330 328 325 325 323 321 320 319 320 330 336 338 343 347 352 356 351 353 351 350 353 352 354 355 354 357 358 359 359 357 356 354 353 353 352 352 351 350 350 349 347 347 348 347 346 345 344 344 342 344 344 347 351 350 353 356 357 356 355 355 352 350 351 350 350 351 350 350 350 350 352 356 357 357 361 358 356 360
329 327 328 329 329 328 328 328 329 328 328 325 322 318 319 319 322 332 335 335 341 341 343 353 350 350 352 349 350 352 354 355 353 354 357 359 360 360 360 357 354 354 352 351 351 351 350 349 348 348 348 347 347 347 345 344 344 345 344 348 351 350 354 357 357 356 354 352 351 349 349 345 347 349 349 350 349 348 352 355 357 357 360 360 360 363
327 325 327 329 328 326 326 327 327 327 327 325 323 318 315 320 323 328 332 334 338 338 340 350 351 350 353 351 351 352 353 354 352 352 357 359 359 362 364 360 356 354 351 352 350 350 350 348 350 349 348 348 347 347 346 345 347 344 344 347 350 351 353 356 355 354 352 349 347 348 348 344 343 345 346 348 346 347 352 355 357 357 359 360 361 362
322 325 327 327 326 326 325 325 326 326 325 324 323 316 313 321 322 319 326 333 336 336 338 345 349 351 353 349 352 352 348 352 350 351 359 360 360 364 367 366 363 359 352 353 350 349 351 350 350 350 349 348 347 349 348 347 347 346 346 348 351 351 352 355 354 351 350 349 346 346 346 343 343 342 342 345 344 345 351 355 356 356 358 360 361 361
324 327 328 327 326 327 324 324 326 323 322 323 323 318 315 322 322 320 327 333 332 335 341 338 331 337 352 352 350 351 348 350 349 354 361 361 361 363 365 367 366 362 354 352 352 350 351 350 351 351 349 349 349 350 349 348 349 348 349 351 351 351 353 355 353 350 349 350 348 345 345 343 343 343 342 344 343 343 348 353 355 356 358 359 360 361
325 327 328 327 327 326 325 325 325 322 319 318 322 323 320 324 326 327 330 329 322 321 334 335 319 322 345 352 351 349 348 351 352 358 362 360 360 361 362 363 363 361 357 353 352 351 351 351 351 352 350 350 349 350 350 349 351 351 351 352 353 352 354 356 354 350 349 350 348 346 346 343 342 345 344 343 345 344 344 349 353 355 357 358 359 361
325 327 326 328 327 327 326 324 326 325 318 314 321 325 324 326 325 324 326 321 313 315 331 338 322 318 328 340 352 352 350 350 353 358 360 360 359 360 362 359 356 357 357 354 354 351 351 351 351 352 351 351 349 350 351 351 353 353 352 354 355 354 355 356 354 351 348 349 350 347 347 345 343 347 348 345 345 345 344 345 349 352 355 357 358 359
325 326 325 326 327 326 324 323 325 328 318 315 324 326 324 324 322 323 323 318 316 320 327 332 328 320 318 328 347 351 347 348 353 358 358 359 360 360 361 356 354 355 353 354 354 351 351 352 352 352 352 352 350 351 351 354 353 354 354 355 356 355 355 357 355 351 348 347 349 348 348 346 344 347 351 348 345 344 344 344 345 350 353 354 356 358
327 326 325 326 325 324 324 324 327 328 322 321 327 327 324 324 322 322 321 317 319 319 316 321 325 321 316 326 341 346 343 345 351 356 358 359 360 361 359 356 355 355 352 353 354 353 352 352 352 353 353 353 352 351 353 354 355 356 357 357 357 356 356 357 355 352 349 346 348 348 347 347 345 345 349 350 347 343 343 344 344 346 351 354 355 357
326 326 325 325 324 324 324 325 327 327 325 326 325 326 325 324 323 323 320 316 315 315 313 317 320 318 316 321 331 336 338 342 348 352 356 357 357 359 358 355 353 353 354 354 353 354 354 352 352 353 354 354 353 353 353 355 356 357 359 359 359 356 356 357 355 351 350 348 350 349 346 346 347 345 346 348 348 344 341 342 343 343 349 355 356 357
324 325 326 325 324 324 325 325 325 326 326 326 326 326 323 323 323 322 320 315 311 311 313 317 320 318 316 318 325 332 337 345 348 349 355 356 355 357 356 352 350 352 355 353 352 355 355 353 353 353 355 355 354 354 354 355 357 358 359 360 360 358 354 356 355 352 351 350 350 350 346 346 347 345 345 345 346 345 342 343 344 344 348 353 357 358
320 322 324 325 324 325 324 324 324 326 326 326 326 323 317 316 317 316 315 315 311 309 312 316 321 319 314 317 327 336 338 344 347 349 355 357 355 356 355 351 351 352 354 353 354 355 355 356 354 352 355 355 354 355 355 355 357 358 361 361 362 360 355 356 357 353 351 352 351 350 348 346 346 346 345 344 346 347 345 343 346 346 348 352 355 358
317 319 323 325 325 325 324 322 323 325 325 325 323 318 312 310 312 312 312 312 311 310 312 316 317 316 314 321 333 339 337 340 349 351 353 355 356 357 356 353 353 355 355 355 356 355 356 358 356 353 355 358 357 355 356 356 357 359 362 362 362 360 357 357 358 355 352 353 351 350 348 346 346 346 345 344 346 349 349 346 347 348 350 352 353 355
313 317 320 323 325 326 324 320 318 319 322 323 318 313 311 310 311 313 313 312 311 310 312 316 315 311 312 321 333 336 335 338 345 351 351 352 355 355 353 353 352 354 355 356 356 355 356 358 356 356 357 359 359 357 356 357 358 360 362 363 363 362 359 358 360 357 353 353 352 350 349 347 347 347 346 344 345 349 352 350 350 350 352 353 353 354
311 313 317 319 321 324 325 322 320 321 322 321 322 318 313 311 311 312 312 312 311 310 310 313 313 308 308 319 330 333 336 338 336 345 349 348 351 352 352 353 352 351 353 355 355 355 356 358 357 356 358 359 360 358 356 356 358 360 363 365 365 363 360 359 361 358 353 353 353 351 350 348 347 347 347 346 345 347 352 353 352 352 353 354 354 353
310 311 318 320 320 323 324 324 325 324 320 321 325 319 313 314 315 312 311 312 311 310 309 310 310 312 316 323 331 331 333 338 337 341 348 349 349 352 352 354 351 348 351 353 354 357 358 357 357 357 356 357 359 358 357 358 358 359 362 365 366 364 361 360 360 359 355 353 352 352 352 350 349 349 348 349 347 347 350 354 355 353 352 353 354 354
312 313 319 322 321 323 323 324 325 322 319 320 320 315 317 322 320 312 310 312 311 311 311 310 310 314 318 322 329 332 332 336 337 337 347 352 354 354 354 354 350 349 352 353 355 359 358 360 363 362 358 357 357 359 360 359 359 360 361 365 366 365 363 362 360 360 357 355 354 353 352 352 352 351 351 351 351 349 349 352 355 355 352 351 352 354
314 313 318 321 322 323 324 324 325 325 322 320 316 317 323 324 322 317 312 312 313 312 312 310 309 311 311 314 325 332 334 334 336 337 345 354 355 353 354 353 351 351 351 353 355 357 360 362 365 363 359 359 359 360 361 360 359 360 361 365 367 366 366 364 362 362 361 357 354 354 353 354 354 352 352 352 352 352 350 352 355 355 355 352 351 352
314 311 315 320 320 322 324 323 322 325 326 323 319 324 324 317 315 316 313 313 313 313 313 312 311 310 308 313 322 329 332 334 337 336 340 350 354 352 354 354 354 352 353 354 355 358 360 361 363 361 359 359 358 359 360 359 360 360 361 364 367 368 367 365 364 364 362 359 358 358 355 355 354 353 353 354 354 353 352 354 356 356 356 354 351 351
315 313 314 318 320 322 323 322 317 319 325 324 323 326 324 318 316 315 314 314 313 313 314 313 312 311 314 321 324 327 333 335 337 338 337 347 352 353 352 353 355 354 355 355 355 357 358 356 359 360 359 358 356 357 359 359 360 360 361 364 366 367 367 366 365 364 363 362 362 360 357 355 354 354 355 355 355 357 355 355 355 356 356 354 354 352
314 314 313 317 320 319 320 321 319 319 322 322 319 318 319 319 320 318 316 315 313 313 313 314 313 312 320 331 330 330 333 331 336 340 340 347 351 349 351 352 352 354 354 353 352 355 355 354 356 358 358 357 356 357 358 358 359 360 362 365 366 367 368 366 365 363 364 364 362 360 358 357 356 357 358 357 357 359 359 357 357 358 357 355 355 353
315 314 313 314 315 315 318 323 324 324 323 324 320 318 318 319 317 316 316 314 313 313 313 314 313 313 323 334 331 331 333 330 334 338 338 346 348 349 350 350 353 355 352 351 352 353 352 354 356 358 358 357 356 357 357 356 357 360 363 366 366 367 368 367 365 365 365 363 361 359 360 360 358 358 359 360 358 360 361 359 358 358 358 357 356 355
317 316 315 315 315 316 319 322 323 323 324 325 323 322 323 321 316 314 314 314 313 313 313 313 312 316 328 337 332 332 333 330 333 337 337 339 345 347 350 350 353 354 353 353 351 351 351 354 357 357 357 358 357 356 357 356 357 359 363 365 367 368 368 367 366 365 366 364 361 361 362 361 360 359 361 361 360 360 361 361 360 359 360 358 358 356
317 317 316 316 316 317 318 321 321 322 323 323 323 324 324 322 320 319 319 318 315 312 312 313 312 317 330 337 334 333 334 331 333 335 335 335 337 342 343 349 353 354 354 353 351 352 353 352 357 358 358 359 358 356 358 360 360 360 363 366 367 369 369 368 367 367 367 365 363 362 362 362 362 361 361 360 360 360 362 363 362 361 361 359 358 357
314 317 318 317 317 316 315 316 319 320 321 320 322 325 324 324 324 323 322 322 318 314 314 314 311 315 330 339 335 332 333 332 332 332 332 335 335 336 335 343 353 356 355 353 354 355 354 354 361 362 359 359 359 358 359 361 363 363 365 366 367 369 370 368 367 368 368 367 363 363 363 363 362 363 362 361 361 361 361 363 363 362 362 360 358 357
312 315 317 319 319 317 314 315 317 319 321 322 323 325 325 325 324 321 320 318 317 318 320 318 314 317 330 337 333 333 333 331 333 332 331 334 334 338 341 343 352 357 357 356 358 358 357 360 365 365 362 360 359 359 360 364 365 364 365 366 366 368 369 368 368 367 369 368 363 363 365 364 363 363 363 361 361 361 361 362 363 362 362 361 358 357
310 311 314 318 320 318 316 318 320 320 320 320 322 323 323 324 323 321 318 316 317 320 318 321 323 322 329 338 333 331 331 330 331 332 333 335 334 340 350 352 352 356 357 356 357 358 361 364 365 367 364 361 357 358 361 365 365 365 366 366 366 368 368 369 368 368 368 367 363 364 365 365 363 363 363 361 361 361 361 362 362 362 363 361 359 356
310 309 311 314 316 318 318 318 318 318 318 319 320 321 321 323 322 320 319 319 322 319 315 325 333 326 329 342 340 335 335 336 337 336 337 340 340 338 345 351 350 350 354 355 356 361 365 365 365 367 366 360 358 359 362 365 365 366 367 366 366 367 368 368 368 368 368 367 364 365 365 365 363 363 362 361 360 360 361 361 361 362 361 362 360 357
311 310 311 312 312 313 314 315 314 316 318 318 319 319 321 322 320 319 319 320 324 321 319 328 336 329 334 345 342 339 342 341 341 340 341 344 345 344 346 345 342 341 348 355 358 364 369 367 364 367 368 365 363 362 363 364 365 366 366 367 366 365 367 368 367 368 369 367 366 366 365 364 363 362 362 362 361 360 361 360 360 361 361 362 361 358
311 311 311 310 311 311 311 312 313 314 316 316 317 318 320 321 320 320 321 322 324 325 326 331 332 331 338 344 340 341 342 341 342 342 344 347 346 346 346 345 342 344 349 352 353 358 365 372 372 371 373 372 366 364 364 364 365 367 366 366 366 365 366 367 367 368 369 368 367 366 365 364 363 363 362 362 362 361 361 362 361 360 360 361 361 359
311 311 312 311 311 312 311 312 312 313 314 314 315 318 319 319 320 320 321 322 324 325 327 330 328 331 340 341 340 341 341 342 344 345 345 345 343 343 346 346 346 346 349 349 352 354 358 370 378 374 373 375 371 365 365 364 366 365 365 365 366 366 366 366 367 367 368 368 367 365 365 364 363 363 363 363 363 362 362 362 361 359 359 360 361 360
312 311 312 312 312 312 311 312 312 312 313 313 313 316 317 317 319 320 322 323 324 324 326 326 323 330 342 342 340 341 341 342 344 344 342 342 343 345 347 349 349 349 350 352 353 355 354 359 370 368 362 365 368 365 364 364 366 364 364 365 365 366 365 366 367 367 368 369 369 367 366 366 364 364 363 363 364 363 362 362 362 360 358 359 360 360
313 312 312 312 313 313 312 311 312 311 312 312 313 314 316 317 319 321 322 323 324 324 324 323 323 332 344 344 341 342 342 343 343 341 342 345 348 349 348 350 351 350 352 354 354 357 357 357 362 364 362 362 360 357 358 361 362 363 365 365 366 366 365 365 367 367 368 369 369 368 368 367 366 365 365 365 365 364 363 362 361 361 358 358 360 361
313 313 313 312 312 313 312 312 313 313 313 313 314 315 317 318 318 320 321 322 324 324 323 326 327 332 340 341 342 343 342 343 342 340 343 345 346 346 345 346 348 348 349 353 353 356 359 360 362 364 365 364 361 356 355 354 358 363 364 364 365 366 365 366 367 367 369 369 369 369 369 368 368 367 366 366 365 365 364 362 363 361 359 359 360 361
313 313 313 313 312 312 313 313 314 314 314 314 315 316 317 317 318 320 320 322 323 322 323 326 326 329 336 339 340 340 340 340 339 339 338 338 338 341 341 342 343 345 347 349 352 353 356 359 360 363 363 364 364 363 360 356 355 360 364 364 364 365 365 365 367 368 369 370 370 370 370 370 369 367 367 366 366 367 365 364 363 362 360 359 359 362
315 315 314 313 312 312 313 313 314 314 313 313 315 315 317 320 321 322 323 323 322 324 328 334 332 331 336 338 336 337 338 338 338 337 333 332 334 335 337 340 340 341 344 347 349 351 354 356 358 360 362 363 365 366 367 362 355 355 362 365 364 365 365 366 367 369 370 371 371 371 372 371 370 369 368 367 367 367 367 365 364 363 362 360 360 362
315 315 314 313 312 313 313 312 314 314 313 313 316 318 321 325 327 329 329 329 328 329 332 336 338 335 335 336 335 336 336 335 337 335 331 329 331 332 334 336 337 339 341 344 347 349 352 353 356 359 362 364 365 365 367 366 360 357 360 362 363 364 365 365 368 370 370 371 372 371 372 372 372 371 369 368 368 369 368 366 365 363 362 361 360 362
313 315 315 314 312 312 312 312 314 314 314 316 320 324 325 326 327 330 330 331 332 333 332 334 336 334 334 335 334 334 336 336 336 335 330 327 329 331 332 333 335 338 341 343 346 347 349 351 353 356 359 362 363 363 364 366 365 362 362 362 363 363 364 364 368 370 371 372 371 372 372 373 372 372 371 369 369 369 369 368 366 364 364 363 362 363
312 314 316 315 314 312 312 312 313 314 314 319 325 326 324 324 326 327 327 329 332 331 329 330 332 331 332 332 333 335 339 339 337 334 329 326 327 329 331 332 333 337 339 342 343 345 346 348 351 355 358 361 364 365 364 364 365 364 365 364 362 362 363 364 366 369 372 371 371 373 374 374 374 373 372 371 371 371 371 370 366 365 364 363 362 363
313 314 315 315 315 315 313 313 313 313 316 323 326 324 322 322 324 326 329 330 330 329 327 328 329 328 329 330 332 334 335 335 333 330 327 325 326 328 330 330 331 334 338 340 340 342 344 347 350 354 357 359 362 366 367 364 362 363 364 365 363 362 364 364 364 368 371 371 372 373 374 374 375 373 373 374 373 372 372 370 367 366 365 364 362 361
313 313 313 315 315 316 315 314 312 312 317 323 323 322 322 320 320 325 329 330 328 327 326 326 326 325 326 328 330 331 331 329 328 327 326 326 326 326 328 330 330 331 335 337 338 340 342 345 348 352 355 358 362 366 367 365 362 360 361 364 364 363 363 364 365 366 370 371 372 373 373 374 375 374 373 374 374 373 371 370 369 368 366 365 363 362
314 314 314 315 315 315 315 314 314 313 318 322 321 320 321 320 321 325 327 326 326 325 325 325 324 324 325 325 326 328 328 327 326 325 325 326 326 325 326 328 329 329 332 335 336 338 340 343 346 350 354 359 363 366 368 365 361 360 362 366 365 363 363 365 365 365 369 371 372 373 373 374 373 373 373 373 374 373 371 371 371 370 368 366 364 364
315 315 315 315 315 315 314 314 315 316 318 319 320 321 323 324 324 325 325 323 324 324 324 323 323 322 323 323 323 324 325 326 325 325 324 325 326 324 324 326 328 328 331 333 334 335 338 341 344 348 352 357 363 367 369 365 359 361 365 368 366 363 364 366 365 367 370 372 372 373 373 373 373 373 373 373 374 373 371 372 372 371 369 368 366 366
316 315 315 315 315 316 316 316 317 317 317 317 319 322 324 324 323 323 323 323 324 323 322 323 322 321 321 321 321 323 323 324 325 324 325 325 325 324 324 326 327 328 331 332 333 334 336 339 342 346 351 357 363 368 371 369 362 362 369 371 366 364 365 367 366 368 372 374 373 373 373 374 374 373 372 373 374 372 372 372 372 371 371 369 368 367
316 315 315 315 315 315 316 316 316 316 316 316 318 320 322 322 321 321 321 323 323 322 321 322 322 321 320 320 320 321 322 323 323 323 324 324 324 324 325 326 327 328 329 331 332 333 334 337 341 345 351 358 365 369 372 371 365 367 374 372 365 365 366 367 368 371 373 375 374 374 373 373 374 374 373 373 374 373 372 372 372 372 372 370 369 368
315 315 315 315 315 315 314 314 315 315 315 316 316 318 319 320 320 320 320 321 321 321 321 321 320 320 320 320 320 321 322 321 322 323 323 324 324 324 324 325 327 327 328 330 332 332 334 336 340 344 349 356 363 368 371 370 365 369 376 373 367 367 367 368 370 372 373 374 374 373 373 373 372 374 373 373 374 373 373 372 372 371 372 371 370 369
314 313 313 314 314 314 315 314 315 315 315 315 315 316 317 319 319 319 319 320 320 320 320 320 320 320 319 319 320 321 321 321 321 323 324 324 324 324 324 325 327 327 327 330 332 333 334 336 339 341 345 351 359 366 368 369 369 369 373 371 370 368 366 370 372 372 373 374 374 373 372 372 371 372 372 372 373 373 372 372 371 370 372 371 369 369
313 312 312 313 313 313 314 314 313 313 314 314 315 315 317 319 319 318 318 319 319 319 319 319 319 320 319 319 320 320 320 321 321 323 324 324 324 324 324 326 327 328 328 330 332 333 334 335 337 339 341 347 357 362 365 368 371 370 370 371 370 367 367 370 373 372 374 374 373 373 372 371 371 371 371 371 372 372 371 371 371 370 371 369 369 369
312 312 312 312 311 312 313 313 312 312 313 314 314 315 317 318 319 318 317 318 318 318 319 319 319 319 319 319 320 319 320 322 322 322 322 323 323 323 325 326 327 328 329 330 332 333 333 334 336 337 339 345 354 358 361 363 366 368 369 370 368 365 367 371 373 373 373 374 373 371 372 371 371 371 371 371 371 371 371 371 371 371 370 369 369 369
311 311 311 310 311 311 312 312 312 312 313 313 313 313 315 316 317 318 317 317 317 317 318 318 319 319 319 319 319 320 320 321 322 321 322 323 323 324 325 326 327 329 329 329 329 331 332 333 334 336 338 344 350 353 355 359 362 364 367 369 369 367 367 371 373 373 373 373 374 371 370 371 373 372 370 370 371 369 367 367 369 370 370 369 369 369
311 311 310 310 310 310 310 310 310 311 311 311 311 313 314 315 316 317 317 317 317 317 317 318 318 319 320 320 320 320 320 321 321 321 322 323 323 323 324 326 326 327 328 328 328 329 331 332 333 335 337 342 346 348 351 356 358 360 362 366 369 369 369 372 374 376 374 373 372 371 370 371 371 372 370 370 369 365 363 362 363 367 369 371 370 368
Wind_Speed
9 7 9 10 11 13 15 16 16 15 16 17 14 11 12 12 11 14 14 12 15 11 11 14 12 6 4 8 15 15 13 13 13 14 11 8 6 5 8 12 15 15 15 19 23 26 27 26 26 27 27 26 26 27 29 29 29 30 29 28 30 28 25 24 23 21 20 18 17 15 15 13 11 11 10 10 10 10 11 11 12 11 9 9 9 10
10 9 10 13 14 15 15 16 17 17 17 17 15 12 11 11 10 13 16 12 17 12 9 13 11 5 5 9 12 15 14 13 14 14 12 11 8 3 3 6 12 14 14 18 21 23 27 27 27 27 27 27 27 27 30 30 28 29 29 28 30 30 27 26 24 23 21 20 18 16 16 14 13 12 10 11 10 10 13 11 10 10 9 9 9 9
10 10 13 15 15 16 16 15 16 17 17 14 12 11 9 9 10 11 17 15 13 10 9 16 13 9 11 9 8 13 14 13 14 15 13 13 11 7 3 3 7 13 15 16 18 22 26 27 27 26 26 28 27 28 30 29 29 29 28 28 30 30 28 27 25 25 22 21 20 17 16 16 15 14 12 12 10 10 14 13 10 10 10 9 9 8
8 9 14 16 14 15 17 16 16 15 13 12 10 9 9 10 11 8 12 17 13 9 10 14 12 10 11 9 8 13 14 13 15 16 14 12 11 8 5 2 5 11 15 17 18 20 23 26 28 26 26 28 28 28 29 30 29 29 28 28 31 30 29 28 27 26 23 22 21 18 16 15 15 16 13 11 11 10 12 14 11 10 10 9 8 8
11 10 12 16 16 16 16 16 16 12 9 12 14 12 10 11 14 11 9 14 13 12 11 11 10 8 11 13 13 13 13 13 14 14 14 11 10 7 3 5 2 12 14 16 18 19 19 23 26 26 27 28 28 28 30 31 29 28 29 29 31 30 29 28 28 27 24 22 22 19 17 14 11 16 16 12 12 11 10 12 12 10 10 10 8 8
13 12 11 14 16 17 17 14 15 12 8 10 14 15 16 14 14 15 15 12 10 10 11 9 9 6 12 18 15 11 13 13 11 12 15 12 10 9 3 6 5 11 14 15 17 18 18 22 25 26 28 28 29 29 30 32 30 29 30 31 31 31 29 29 29 29 26 24 23 20 18 16 11 13 17 15 13 13 11 10 12 11 10 10 9 8
10 14 13 13 14 16 17 14 14 14 10 8 9 13 17 18 16 16 17 12 8 8 10 12 9 7 9 15 17 15 16 17 15 14 15 13 11 11 8 8 9 13 15 15 17 18 18 21 24 25 28 30 29 30 31 32 31 30 31 32 32 31 30 29 30 30 28 25 24 22 19 18 16 13 15 16 13 13 13 10 11 13 11 10 10 8
9 14 15 14 14 14 14 12 13 15 11 8 9 12 15 18 18 17 16 11 9 9 10 13 11 7 8 10 17 21 19 19 18 15 14 14 14 13 11 11 13 16 16 14 15 18 18 20 23 25 29 30 30 31 31 31 32 32 33 34 33 32 30 30 31 31 30 28 26 25 21 18 19 16 15 17 14 12 13 11 11 13 13 12 11 10
9 13 14 16 14 10 10 11 13 15 12 9 12 14 10 11 14 16 15 11 10 10 8 11 12 9 7 8 13 19 20 19 19 20 19 17 17 15 13 14 17 18 17 16 15 17 17 20 25 27 28 29 29 31 31 32 33 32 33 35 33 33 32 31 33 32 31 31 28 27 24 20 20 18 16 17 15 12 12 12 11 12 14 14 12 11
9 9 11 15 13 9 11 12 12 14 13 10 13 15 11 8 8 10 11 10 11 10 9 12 13 9 7 8 10 13 17 18 19 20 21 20 20 18 16 18 18 16 14 16 16 16 17 21 27 29 29 30 29 30 31 31 31 31 33 35 34 33 33 32 34 34 32 31 30 28 26 23 22 20 18 17 16 15 13 12 12 12 13 14 13 12
13 12 9 11 11 12 12 12 14 16 13 10 11 13 12 9 6 6 7 8 9 9 10 15 14 11 9 8 9 10 13 16 18 17 18 21 21 19 19 19 18 16 13 15 17 17 18 22 27 29 29 30 29 29 31 30 31 32 33 35 35 34 34 33 34 36 33 32 31 29 28 26 24 22 20 19 18 18 17 15 14 15 14 13 13 13
14 14 11 8 10 14 12 11 13 14 11 10 10 9 9 7 5 5 7 7 9 9 11 15 16 15 11 7 7 10 13 16 18 20 20 22 22 21 20 19 18 17 16 16 15 16 18 19 22 27 28 29 29 28 31 32 31 33 33 35 35 34 34 34 35 36 35 33 32 30 29 28 26 24 22 21 19 20 20 18 17 17 16 14 14 13
11 13 13 11 11 14 13 9 10 11 10 11 11 9 9 7 6 6 7 7 9 9 10 13 15 14 11 9 13 12 10 14 17 21 23 25 25 23 21 19 17 17 18 17 15 15 15 13 14 20 24 27 28 28 31 33 32 32 33 35 36 35 36 36 36 37 36 34 33 32 31 29 28 26 24 23 21 20 21 21 19 18 19 18 16 15
7 11 15 15 10 11 13 9 8 10 11 12 11 9 9 8 7 8 7 7 9 10 12 15 14 12 10 10 15 17 13 12 16 21 25 26 26 24 22 21 18 18 18 16 15 15 14 13 13 18 22 25 28 30 31 33 33 32 33 35 37 36 37 37 36 38 37 35 33 33 32 31 29 27 26 24 23 22 21 21 21 20 20 20 19 18
8 8 12 14 10 10 15 13 10 10 11 11 11 9 9 8 7 7 6 7 8 8 12 16 12 10 9 7 12 17 15 11 10 15 22 24 25 24 22 22 20 20 19 15 15 16 15 15 14 18 22 25 27 31 32 33 33 33 33 36 37 37 37 37 36 37 38 36 34 33 32 31 31 29 27 26 25 23 22 22 22 21 20 20 20 20
11 10 7 13 15 14 16 14 12 13 10 9 10 10 10 9 8 7 8 9 9 8 9 11 9 8 7 7 11 15 15 13 12 11 19 21 22 23 21 20 19 18 17 16 16 16 16 16 16 18 22 26 29 30 31 32 32 33 34 35 37 38 38 39 38 37 38 37 35 34 33 32 31 30 28 27 26 25 24 23 22 23 22 20 20 20
7 10 13 11 12 17 18 15 15 14 10 6 10 11 10 10 10 8 10 12 10 9 7 7 8 8 8 9 11 14 16 17 16 12 18 22 23 22 19 17 18 17 16 17 16 15 16 15 14 15 17 22 29 31 31 33 34 34 35 35 37 37 37 39 39 38 38 37 36 35 35 33 32 31 29 28 27 26 25 24 23 23 23 22 20 19
7 9 15 18 13 13 17 17 17 17 15 10 8 10 10 12 12 8 7 9 9 9 6 8 11 10 8 8 9 14 16 17 17 14 17 24 25 23 20 18 19 18 18 18 16 14 14 12 11 14 15 18 27 32 32 34 35 35 35 35 37 37 36 37 37 37 37 38 37 36 36 35 33 33 31 28 28 27 26 25 25 23 23 23 22 20
9 9 12 16 16 12 13 16 14 16 20 17 11 8 9 10 10 8 7 7 9 8 6 9 12 10 9 8 9 14 16 14 16 17 16 21 26 23 20 20 21 19 17 17 16 14 13 12 12 16 17 17 22 28 30 31 33 34 34 35 37 38 37 37 36 35 37 37 36 36 38 37 34 33 31 29 28 28 27 26 26 25 23 23 23 22
8 8 10 14 17 14 9 10 11 13 17 17 16 12 9 8 8 9 8 7 8 7 7 9 9 8 7 8 11 15 16 14 15 17 14 18 25 22 19 19 18 17 16 16 16 15 14 14 16 19 21 22 20 19 22 26 30 34 35 34 36 36 35 35 35 35 37 36 34 34 37 37 35 33 32 30 29 28 28 27 27 26 25 24 24 24
7 8 8 12 16 14 8 8 10 12 12 12 14 12 10 8 7 9 9 8 8 7 6 7 8 7 5 6 11 14 16 17 15 13 13 18 23 21 19 20 18 16 17 17 17 17 16 17 18 20 25 28 22 13 15 23 31 35 35 34 35 36 35 35 35 35 36 36 35 35 36 36 36 34 31 30 30 29 29 28 27 26 26 25 25 25
4 7 8 10 11 9 9 9 11 14 13 11 11 11 12 10 8 10 10 10 10 8 7 7 7 7 5 7 9 8 11 14 13 10 10 15 21 21 20 21 20 18 19 20 19 19 18 17 18 21 24 26 22 18 21 30 36 36 36 35 35 36 36 37 36 35 36 36 35 36 37 36 35 35 32 30 30 29 28 29 29 27 26 26 26 27
6 6 8 9 10 12 16 16 13 15 17 14 12 11 13 12 10 9 8 9 10 9 9 8 8 5 3 4 9 9 9 13 14 13 12 13 17 19 20 24 23 20 20 21 20 19 18 16 19 24 25 25 27 30 34 38 41 40 37 35 35 36 37 37 36 36 36 37 36 36 37 36 35 35 33 30 30 29 28 28 29 29 28 26 26 27
7 6 8 8 10 13 19 20 17 17 17 14 11 9 12 14 14 11 9 10 10 10 11 7 8 6 5 5 4 9 8 10 12 13 14 14 13 13 16 20 22 21 21 22 20 17 16 17 18 20 23 27 31 35 39 42 40 38 37 35 34 36 37 36 35 34 35 36 36 35 36 35 34 34 34 32 30 30 29 28 28 29 29 27 27 28
5 5 6 7 8 9 11 12 11 12 11 8 7 10 14 16 15 11 9 11 10 9 11 8 8 8 1 5 2 4 9 9 9 11 14 13 12 13 15 13 18 22 21 22 21 17 17 18 16 15 17 23 28 31 35 38 36 35 35 35 34 34 35 35 34 34 34 35 35 34 35 35 34 34 34 33 32 31 30 28 27 28 29 28 27 28
6 6 6 7 8 8 8 5 6 7 7 8 8 10 15 16 15 9 8 11 8 4 5 4 6 9 4 5 2 2 5 2 2 4 9 12 14 11 7 8 12 19 20 20 20 17 16 15 16 15 17 21 26 29 31 33 33 34 34 33 33 32 33 34 34 34 34 34 34 35 35 36 35 34 35 34 32 31 31 30 28 28 29 29 28 28
6 7 9 10 10 10 9 9 11 11 9 11 12 13 15 16 15 12 8 9 7 6 7 4 5 7 1 2 3 4 3 1 2 2 3 5 8 9 7 4 5 14 19 20 18 17 15 14 16 17 18 22 27 28 29 31 32 31 31 32 32 32 33 34 34 34 34 34 35 36 36 37 37 36 35 35 33 31 31 31 30 29 30 30 29 28
5 8 12 14 15 16 17 16 16 15 14 15 16 16 17 16 16 14 11 12 12 10 9 6 7 4 7 10 4 3 5 2 3 3 7 8 5 8 9 6 7 12 16 15 15 16 14 13 17 17 17 21 28 29 28 30 32 30 30 31 32 32 33 33 34 34 35 35 35 37 38 37 37 36 35 35 34 33 32 32 31 31 31 31 30 29
6 8 11 15 17 18 19 18 17 16 15 15 16 18 18 16 17 17 16 17 16 10 7 6 8 5 7 11 10 9 8 10 11 6 8 11 12 13 11 9 9 10 11 9 4 4 5 6 11 16 18 20 25 27 27 28 30 29 29 30 32 33 32 33 34 34 35 35 35 36 38 37 36 36 36 36 36 34 33 32 32 31 32 32 31 30
7 8 11 14 16 17 19 17 17 17 15 15 19 21 18 15 18 19 18 20 19 13 12 11 10 4 6 9 6 9 10 10 11 9 10 12 13 14 15 14 12 10 13 16 13 10 7 4 3 6 12 17 21 24 24 25 27 28 29 30 32 32 32 33 34 33 34 35 34 35 36 37 36 36 36 37 37 36 34 33 32 31 31 33 32 31
4 7 11 12 11 14 16 16 16 16 15 17 20 20 18 17 19 19 17 17 17 14 15 15 11 5 4 8 6 8 12 13 12 12 12 12 14 15 13 12 13 11 12 14 12 11 9 6 5 8 7 5 12 20 22 22 25 28 29 29 31 31 32 33 33 33 33 33 32 32 34 36 35 35 36 37 37 37 36 33 33 32 31 32 33 31
4 6 10 10 9 10 12 14 15 15 17 19 18 18 19 17 16 15 13 12 13 13 13 12 9 5 3 6 7 8 10 12 12 12 10 11 13 14 12 11 12 11 12 13 11 10 10 7 3 2 6 9 10 14 17 19 22 26 27 27 30 31 30 31 32 32 32 31 30 31 33 35 35 34 36 37 37 38 37 34 33 33 31 31 33 33
6 6 6 7 8 9 12 14 14 13 14 13 13 17 18 17 16 15 14 14 15 14 10 8 8 5 4 6 7 7 8 8 9 9 9 10 10 10 10 11 12 11 12 13 12 11 11 9 6 3 4 8 9 10 14 16 18 22 25 25 27 29 29 29 30 30 31 31 30 31 32 34 34 34 35 37 37 37 38 36 33 33 32 30 31 33
8 7 6 6 7 9 12 14 13 12 11 9 9 14 16 15 16 16 15 15 15 13 9 9 11 7 4 9 8 7 7 6 6 6 10 11 9 9 10 11 12 12 12 12 12 13 12 10 10 11 11 8 6 8 15 20 21 22 24 25 25 28 29 28 28 30 32 32 31 31 32 33 34 34 35 36 36 36 37 37 34 33 32 30 30 32
9 8 6 5 6 8 10 11 11 10 9 9 10 11 12 12 13 15 17 17 17 16 14 15 17 10 4 10 7 6 6 6 6 10 14 13 11 11 11 11 12 12 12 11 11 12 12 11 12 13 15 14 10 8 11 18 22 22 24 25 25 28 30 28 27 30 31 32 32 32 33 34 34 34 34 35 36 35 36 36 35 33 32 31 30 30
8 8 6 5 6 7 7 8 9 8 9 12 13 12 12 10 9 11 14 15 16 14 12 15 16 9 8 10 6 5 6 5 4 11 15 14 13 12 11 11 12 13 12 11 11 12 12 13 14 15 17 17 15 13 12 13 19 22 24 26 26 27 29 27 26 29 31 32 32 33 34 35 34 34 34 34 35 34 35 36 35 34 33 31 29 29
6 7 8 7 6 6 7 8 8 9 11 12 10 7 5 4 3 3 5 9 11 10 11 14 15 13 14 10 7 6 7 7 2 7 14 15 13 13 12 11 13 13 13 13 14 14 16 16 17 18 19 19 18 17 16 14 17 22 24 27 27 27 29 28 26 29 32 33 34 34 35 35 35 34 34 34 35 35 35 35 35 35 33 31 28 28
5 6 8 8 6 6 7 7 7 9 9 7 3 5 7 6 5 3 4 5 9 14 14 14 15 15 13 11 10 10 8 6 4 4 12 15 13 13 13 12 13 14 14 17 17 18 19 20 21 21 21 21 20 21 21 20 20 20 22 27 27 27 28 29 27 29 33 34 35 35 35 35 35 35 34 34 35 34 34 35 35 35 34 32 29 27
7 6 6 8 7 6 7 7 7 8 6 1 2 3 4 5 5 5 7 5 8 15 15 14 15 15 14 13 13 10 6 3 2 5 11 14 14 14 13 13 14 15 16 18 19 20 22 22 23 23 22 22 22 21 22 23 24 22 19 26 29 28 28 30 30 31 34 36 35 34 34 34 35 35 34 34 34 33 34 34 35 35 34 33 31 28
7 6 5 7 8 8 9 8 6 7 4 2 3 3 5 6 5 6 9 4 8 13 12 12 13 14 14 13 11 9 7 4 5 7 11 13 13 13 14 14 14 15 16 18 20 21 22 22 22 22 21 22 23 24 23 22 23 23 19 24 29 28 28 32 35 33 33 34 34 33 33 34 35 35 34 33 34 34 34 33 33 33 33 33 31 29
6 5 6 7 7 8 9 9 7 7 2 4 5 7 8 7 5 6 5 1 7 10 10 10 11 12 14 14 10 7 5 4 6 9 11 12 12 13 15 16 17 17 18 19 22 22 21 21 21 22 23 23 25 27 26 22 20 21 20 23 27 29 31 34 33 31 30 32 33 33 33 33 34 35 34 33 34 34 33 32 31 32 33 32 31 31
4 4 5 7 7 7 7 7 8 7 2 8 10 7 6 6 6 3 1 2 4 7 9 9 9 10 12 13 11 10 8 7 8 10 12 13 12 13 15 17 18 19 20 23 24 23 22 22 22 23 24 25 26 28 26 22 20 20 20 21 27 31 32 30 30 29 30 32 33 32 32 33 33 34 33 33 34 34 33 33 31 31 33 32 30 31
2 3 5 5 5 6 7 7 7 5 4 13 15 7 2 3 3 0 1 1 3 6 7 7 7 8 10 11 12 14 14 13 12 12 14 14 13 13 15 16 17 18 20 23 25 25 25 23 23 24 25 26 28 30 26 19 19 19 18 21 29 32 29 27 29 30 29 31 33 32 32 33 33 33 33 33 34 34 33 32 32 31 32 32 30 29
1 2 5 4 3 4 6 5 3 3 5 11 12 6 3 1 1 1 2 1 1 3 4 4 4 6 8 10 12 14 13 13 14 13 13 14 13 13 14 15 17 19 21 23 25 27 27 24 24 24 26 27 29 29 26 19 18 18 17 22 30 31 28 26 29 30 29 30 32 31 31 32 32 33 33 32 33 33 32 32 32 30 31 32 30 28
2 3 6 4 3 5 7 7 8 9 9 9 7 7 7 3 2 1 3 3 3 2 2 3 4 5 7 9 11 12 11 11 14 14 13 13 13 12 13 15 17 19 22 23 25 27 27 26 26 25 25 28 28 26 24 21 18 16 15 22 29 29 27 27 28 29 29 30 31 31 31 31 31 32 33 31 31 33 33 32 31 29 29 30 29 27
3 4 4 5 6 8 9 10 10 11 10 9 8 9 10 6 2 2 3 4 3 3 3 4 4 5 7 8 9 10 9 10 12 12 12 12 12 12 12 14 17 20 22 23 25 28 28 27 26 25 25 28 28 24 22 20 16 14 14 21 29 30 27 26 27 29 29 28 29 30 31 31 31 32 32 31 31 31 31 32 31 29 28 29 28 26
3 6 6 7 9 9 8 6 8 10 11 11 11 11 11 10 8 5 4 4 4 4 5 5 5 5 7 8 10 10 10 10 10 10 11 11 11 12 12 12 15 19 22 23 24 26 27 24 24 25 25 27 27 23 21 21 13 11 15 17 22 28 27 25 26 28 28 28 29 29 31 32 32 31 32 31 31 31 30 30 30 29 28 28 27 26
3 6 8 9 9 9 11 11 12 15 13 11 10 9 8 9 11 9 6 5 5 6 7 8 7 6 6 8 9 10 12 12 9 9 11 10 9 10 11 11 13 17 20 22 24 25 24 22 23 26 25 25 26 22 19 21 17 4 12 14 17 23 24 23 25 27 27 28 29 29 30 32 32 31 31 31 31 31 30 30 31 30 30 30 29 27
6 7 8 9 10 10 11 10 14 16 12 9 10 11 9 9 11 10 8 8 9 8 9 10 9 7 7 9 9 9 11 12 9 8 10 10 9 9 11 12 15 16 19 23 25 25 23 23 24 26 26 24 23 20 17 18 19 11 3 10 16 20 20 20 24 27 27 28 28 28 29 30 30 31 31 30 30 30 29 30 31 30 29 31 31 30
6 6 7 8 8 8 9 11 14 12 11 11 14 17 15 13 13 12 10 11 12 11 10 10 10 9 9 10 10 8 9 11 10 8 9 9 9 10 12 14 15 16 20 24 26 25 24 25 25 25 25 24 22 22 20 17 15 15 11 7 13 17 18 19 22 24 25 27 27 27 28 28 28 31 31 30 29 28 26 26 28 29 28 29 30 30
3 4 5 6 7 9 12 14 13 10 11 14 17 19 17 15 15 15 13 12 13 12 11 11 10 10 10 10 9 9 9 10 11 10 9 9 9 10 13 14 15 17 19 22 24 25 25 26 26 24 25 26 25 24 21 18 16 17 15 8 8 12 15 19 23 24 25 26 26 28 30 28 28 30 31 28 29 31 28 22 21 23 26 29 30 29
Wind_Direction
213 218 215 222 223 222 221 223 237 245 250 264 266 251 238 233 237 242 238 191 178 192 178 193 216 205 207 192 174 174 179 184 187 182 179 177 172 186 200 188 179 181 181 182 186 183 177 176 175 170 171 173 169 167 166 166 169 164 163 162 159 164 163 160 163 160 161 161 162 164 159 162 168 165 162 159 159 154 149 149 149 152 160 163 151 146
208 230 225 223 229 230 232 228 235 250 253 261 269 271 260 244 241 239 245 214 179 194 188 182 192 175 241 242 180 169 178 185 190 186 180 180 175 175 234 220 191 181 181 184 185 184 180 177 177 171 170 174 169 166 166 168 171 167 166 165 160 165 166 164 167 164 165 165 165 167 164 165 166 164 162 161 167 159 149 151 152 157 165 165 155 152
205 231 233 228 232 232 240 238 233 241 251 257 260 269 271 263 258 235 246 246 191 184 186 172 168 174 209 222 179 182 188 185 192 191 183 177 171 172 202 268 229 195 180 184 185 185 183 178 177 173 172 176 172 168 169 170 172 169 170 169 164 167 168 169 171 168 169 168 168 170 170 170 165 166 170 166 171 163 151 154 157 159 168 172 162 161
216 225 231 233 236 231 235 241 241 238 240 252 252 254 252 254 269 243 232 247 222 193 197 188 179 175 190 203 208 209 198 190 198 191 175 166 161 165 173 156 265 229 190 181 187 187 184 179 178 177 175 177 173 171 171 172 174 172 174 172 167 170 171 172 174 171 171 171 171 172 175 180 169 165 172 166 168 167 153 153 161 167 173 177 170 167
239 230 221 228 234 236 235 232 239 242 233 238 241 249 254 248 263 271 253 250 232 200 196 213 215 178 171 190 204 211 203 196 199 183 160 156 153 137 151 147 230 257 217 186 188 187 185 182 180 178 177 178 175 173 173 175 176 175 176 174 171 173 172 173 177 175 173 172 173 174 178 193 182 160 164 166 166 171 163 157 162 173 179 180 177 176
244 242 226 222 225 231 239 233 229 236 242 239 232 237 254 260 261 269 275 270 246 210 187 202 237 213 178 182 185 198 205 193 189 179 159 152 147 133 173 183 187 250 229 195 191 188 187 185 181 177 178 181 179 176 176 176 178 177 176 175 174 175 174 175 178 177 175 173 174 177 176 187 190 158 159 168 168 171 179 174 168 173 182 183 182 185
241 243 239 234 228 224 232 237 230 231 241 245 237 230 240 259 267 271 277 275 263 240 195 191 224 242 204 188 179 182 197 193 183 180 167 158 154 153 184 195 197 224 214 196 194 190 191 187 183 181 181 185 183 179 178 177 179 178 176 177 176 177 176 176 179 177 177 176 175 178 176 179 184 167 161 172 175 172 178 184 178 174 179 187 187 190
231 237 241 239 236 230 227 229 226 231 239 241 250 243 228 238 250 260 271 273 276 271 229 206 211 229 235 211 186 181 192 195 177 171 174 171 168 171 186 192 206 216 203 196 195 190 194 189 186 185 184 187 185 180 179 178 180 179 177 178 178 179 178 177 180 178 178 178 176 178 178 178 182 178 169 174 181 178 175 181 184 176 177 189 191 193
231 227 234 239 238 237 234 233 224 228 240 240 251 260 248 238 244 249 255 262 275 279 257 227 213 214 232 223 197 184 187 192 178 173 177 176 174 178 191 197 206 209 192 191 197 193 195 190 188 188 185 188 187 182 182 181 180 178 176 178 180 180 180 180 181 180 180 181 180 181 181 181 184 185 180 178 183 185 181 181 184 180 179 186 190 192
253 232 228 235 238 235 234 240 234 227 236 239 247 264 270 260 256 256 251 253 264 266 260 246 228 225 233 215 202 188 185 190 185 178 172 173 178 179 190 197 198 201 188 187 195 195 198 192 189 190 187 189 190 185 184 183 180 179 176 177 181 182 181 182 182 182 183 182 183 183 184 185 185 187 186 184 186 189 191 186 184 186 179 177 185 193
273 277 261 238 239 244 235 237 240 233 235 238 238 252 260 250 242 261 260 252 254 248 246 250 245 247 246 219 207 202 195 188 180 177 170 169 178 181 188 192 188 192 194 192 191 190 198 198 192 192 190 189 191 187 184 185 182 180 179 179 182 183 183 183 183 184 184 184 186 186 187 189 189 189 189 188 188 188 192 193 187 190 186 178 183 191
264 272 272 248 236 248 242 232 242 240 231 234 235 236 245 240 217 241 253 244 246 241 235 241 246 251 251 241 233 213 197 185 171 171 171 168 177 184 187 189 185 188 191 192 191 189 195 200 195 192 189 188 192 189 184 187 185 181 181 180 181 184 184 183 184 185 186 186 188 189 190 192 192 191 191 190 189 187 191 195 190 190 192 190 189 192
243 248 254 250 231 238 243 228 231 236 222 223 231 229 230 229 212 220 227 226 238 241 235 236 241 247 249 249 257 248 216 195 175 169 170 170 177 182 185 188 185 184 187 188 190 190 193 198 195 192 187 185 191 193 187 188 189 184 182 182 182 184 185 184 184 186 187 188 190 191 193 194 194 194 194 193 191 189 191 193 192 191 193 194 195 196
234 224 231 245 233 218 233 233 221 222 215 215 219 218 221 223 217 220 219 225 240 239 232 233 235 244 244 237 249 257 247 216 188 173 172 174 177 179 183 186 184 183 186 187 187 190 192 195 193 190 188 185 190 194 191 189 190 186 183 183 184 185 186 184 185 186 187 189 191 192 194 195 195 195 195 195 195 193 193 193 194 195 195 196 198 199
270 239 212 223 227 212 218 227 236 234 221 216 217 220 224 226 227 228 220 221 236 240 227 222 226 237 238 223 232 245 250 245 217 175 166 174 177 175 179 183 184 185 183 182 188 189 188 191 193 188 185 186 190 196 195 191 190 186 183 184 185 186 186 185 186 187 188 190 190 191 193 195 196 196 196 197 198 197 197 196 197 198 198 200 201 202
283 280 249 216 213 221 220 214 228 246 239 208 207 223 225 223 233 246 253 251 248 248 229 216 220 229 239 236 225 228 231 237 238 186 161 168 170 167 174 180 183 185 180 180 189 189 186 190 195 190 186 187 191 197 198 193 190 187 185 185 186 187 187 187 187 188 189 190 190 191 193 194 195 196 196 198 199 200 200 200 200 201 201 201 203 204
293 289 300 277 228 226 229 212 205 230 250 214 201 220 225 226 236 242 257 269 268 257 236 222 226 218 227 238 222 220 218 216 229 208 163 160 162 163 171 178 181 183 181 182 187 187 183 183 185 185 187 190 193 196 199 196 193 190 186 185 187 187 187 188 188 188 189 189 190 192 193 194 194 195 196 197 199 201 202 203 203 204 204 204 204 203
319 302 302 304 286 252 242 228 205 213 241 248 215 207 210 228 240 245 253 257 256 256 241 230 234 218 211 222 210 216 218 208 213 213 175 159 160 167 172 176 182 184 183 184 184 181 177 173 172 178 189 198 195 194 197 197 194 192 188 185 186 186 187 187 186 187 188 189 190 192 193 193 194 195 196 198 200 202 202 204 204 205 206 206 205 203
321 306 291 293 291 281 257 238 215 206 225 245 250 226 210 220 224 226 245 247 243 253 248 236 241 231 216 209 199 209 219 210 201 211 202 167 159 168 171 173 180 182 183 185 183 179 171 168 174 181 190 200 197 195 199 200 198 195 191 188 187 187 187 186 185 186 188 188 188 190 192 194 194 196 197 198 200 202 202 204 204 205 206 205 205 205
313 297 287 289 290 292 273 239 223 207 212 235 254 252 241 240 227 217 225 241 247 250 251 242 237 237 232 212 201 202 208 215 207 207 204 160 153 166 171 169 177 179 180 185 186 183 174 173 181 182 188 195 195 197 202 206 208 203 194 190 189 188 187 186 187 187 187 187 186 188 192 194 195 196 197 197 199 201 202 203 204 204 205 205 204 204
293 281 281 286 289 294 275 238 235 225 208 216 239 245 243 247 248 234 220 222 239 248 254 254 239 233 235 215 213 203 194 209 218 207 188 160 158 169 171 171 177 179 182 187 187 187 182 182 182 179 188 195 192 194 210 217 220 211 198 192 191 188 187 188 188 188 187 187 187 189 191 192 194 195 196 197 198 199 201 203 203 203 204 204 202 202
292 280 283 280 281 280 264 255 251 245 231 215 222 234 237 237 236 236 225 213 223 239 246 262 262 238 228 227 223 204 183 196 211 210 190 172 169 172 173 175 179 181 184 186 187 188 186 183 178 174 185 193 186 187 206 220 225 217 201 194 191 189 189 189 189 188 188 188 188 189 189 189 191 193 194 194 195 197 200 201 202 202 202 203 201 201
359 297 279 276 272 277 286 292 290 280 272 255 242 237 235 234 227 227 234 221 217 226 231 254 270 258 301 272 210 189 191 192 194 203 205 196 187 182 179 179 180 181 179 181 185 186 183 181 178 174 177 183 184 187 198 211 219 215 204 195 192 191 192 191 189 188 187 189 189 188 188 187 188 190 191 191 193 196 198 199 201 201 201 201 200 200
359 286 264 275 278 282 289 293 295 294 288 270 261 268 255 240 231 229 243 243 228 219 217 230 252 251 354 2 178 180 199 186 176 194 208 211 206 201 198 185 176 177 176 177 181 182 183 183 177 174 175 181 186 189 196 204 210 209 202 196 193 194 193 191 190 188 186 188 188 186 186 187 187 188 189 191 193 195 197 197 198 199 200 200 199 198
341 279 269 271 268 269 266 268 272 276 278 269 270 291 284 263 251 253 262 257 244 229 223 216 229 238 9 47 87 209 212 182 159 184 203 211 205 208 223 206 175 174 176 174 174 177 182 181 175 174 178 185 189 191 195 200 203 203 200 198 195 194 193 191 190 188 186 186 186 184 185 187 187 188 189 191 193 194 196 196 196 197 198 199 199 197
303 290 292 268 248 245 239 249 278 275 286 295 289 298 300 287 277 288 288 259 247 259 263 233 228 238 199 125 124 254 234 201 102 177 195 207 195 182 227 234 178 172 172 165 166 176 180 173 172 178 183 188 192 192 194 197 200 201 199 197 197 195 193 192 191 189 186 185 185 184 185 186 187 189 190 191 193 194 195 196 195 196 196 198 199 197
290 276 274 268 263 265 273 301 312 306 306 299 293 300 305 304 309 323 312 274 266 268 256 236 249 262 284 109 183 187 194 292 313 353 11 247 198 123 65 10 122 151 162 162 167 176 176 168 173 183 187 189 191 193 194 194 197 199 197 196 197 195 193 193 192 189 186 186 187 186 186 186 188 190 190 191 194 194 194 196 196 196 196 197 199 198
270 266 261 261 262 268 278 290 296 296 292 286 291 293 289 300 316 318 301 292 299 281 239 225 252 271 40 32 19 138 135 61 348 33 40 6 358 64 66 63 98 132 150 159 170 170 167 171 180 187 190 190 190 192 193 193 195 197 195 194 196 196 195 193 191 189 186 187 189 187 187 188 188 190 191 192 194 195 195 197 197 197 196 196 199 200
255 262 262 262 263 266 272 276 279 278 273 276 286 280 274 289 304 298 288 289 294 276 226 236 257 230 90 57 32 33 49 34 6 13 67 44 24 30 36 54 91 116 106 80 72 119 133 173 190 192 192 188 188 189 189 190 192 194 193 193 195 196 194 192 191 189 186 189 192 190 189 189 188 190 191 192 193 195 197 198 199 198 196 195 199 201
271 266 262 264 268 270 270 273 280 280 276 279 280 270 267 286 294 290 292 292 288 264 228 238 256 235 106 91 60 12 14 18 3 15 50 39 25 23 23 40 66 81 70 52 30 19 21 4 309 236 200 182 179 185 190 188 188 192 194 193 195 196 193 190 190 189 187 190 194 192 189 189 189 190 190 191 193 195 197 198 199 200 197 195 198 201
278 284 280 275 271 270 271 273 275 274 269 269 270 264 264 275 278 279 283 285 288 268 236 239 250 229 97 76 68 22 8 9 15 34 38 15 8 12 11 31 52 54 51 47 34 24 32 38 354 322 298 229 179 181 189 189 186 192 196 194 195 197 194 189 189 190 189 191 194 192 190 189 190 190 190 191 192 194 196 197 198 201 200 196 197 200
253 278 291 287 273 268 271 270 266 263 259 258 261 261 263 265 263 270 276 278 288 280 251 249 257 226 111 58 58 47 20 10 19 26 15 360 3 8 10 24 35 33 30 30 25 25 41 63 81 269 268 259 224 197 198 195 188 192 197 196 194 196 197 192 188 188 188 190 193 192 190 190 190 191 191 191 192 193 195 197 198 200 202 198 196 200
257 261 273 277 274 272 271 270 269 267 260 255 253 251 253 258 258 263 272 274 282 285 271 260 255 223 118 75 67 61 39 18 14 9 5 9 11 12 20 23 20 18 17 15 12 13 23 25 8 345 257 243 237 229 227 218 204 197 197 198 195 194 199 197 190 187 187 188 192 193 191 191 191 192 192 192 193 193 195 197 198 199 201 199 197 198
254 254 260 263 268 274 280 281 277 266 255 252 251 244 242 249 255 258 264 269 274 280 289 292 276 257 99 76 61 54 48 14 352 16 35 33 21 13 18 19 15 13 10 9 6 2 2 358 344 336 329 313 280 243 233 227 221 207 197 198 196 192 199 201 191 187 186 186 189 192 192 192 192 194 194 193 194 194 194 197 199 199 200 200 198 197
262 253 251 252 256 267 282 282 267 253 258 272 277 271 263 259 261 264 264 264 264 268 284 287 271 257 99 83 66 44 35 359 6 51 52 38 25 14 8 7 8 6 5 4 357 348 345 343 335 328 323 319 311 288 255 234 227 212 196 196 196 192 198 202 192 185 185 185 188 191 191 192 193 195 195 194 194 194 195 197 199 199 199 200 200 198
284 272 255 245 253 259 265 264 257 265 288 288 282 279 275 273 282 281 269 260 259 270 304 307 288 296 35 58 57 38 14 343 28 62 48 32 27 17 5 2 360 356 357 354 345 337 333 328 322 319 314 311 306 298 287 254 234 221 200 195 198 194 196 201 194 184 183 186 188 190 192 192 193 195 195 194 194 194 195 196 198 199 199 199 201 200
282 285 267 247 238 246 257 258 263 279 286 280 274 284 300 318 359 335 282 278 288 314 346 337 326 349 20 23 9 8 355 321 316 57 36 24 22 14 6 2 355 350 349 344 337 331 326 319 318 321 318 313 307 297 292 274 247 230 207 196 200 197 194 199 197 186 185 187 189 191 192 192 192 194 194 194 194 194 195 196 197 198 198 198 200 200
250 267 275 266 243 236 256 262 263 267 265 264 297 6 13 10 25 13 281 292 345 1 2 348 340 353 9 6 353 356 348 303 269 40 23 12 11 10 5 360 354 350 346 341 335 329 326 324 323 321 314 305 299 292 287 282 271 247 211 194 199 199 193 198 200 191 187 189 191 192 192 191 192 193 193 194 195 195 195 195 196 198 198 198 199 200
242 243 267 274 257 240 245 247 250 257 252 250 16 3 344 338 351 321 263 259 9 10 5 356 346 346 358 360 356 1 3 311 307 20 10 3 5 6 1 356 353 350 345 341 336 330 328 324 317 310 303 295 289 283 275 271 271 262 220 191 196 202 197 199 201 196 191 190 191 191 191 190 191 192 192 194 194 194 193 193 195 197 198 199 201 202
257 249 244 255 255 252 251 245 247 261 260 71 37 326 313 328 334 280 246 255 5 1 360 7 2 354 353 351 354 15 30 11 348 352 354 0 6 2 358 357 350 345 343 342 340 333 324 319 312 306 303 298 294 292 282 263 256 258 234 196 193 200 201 201 202 199 194 190 189 190 190 190 192 192 192 193 194 194 193 193 194 196 197 200 202 203
263 255 248 251 253 253 254 251 253 257 257 55 11 332 326 315 283 257 244 300 5 353 354 11 16 3 349 345 350 5 19 13 353 342 344 359 9 4 358 356 349 343 341 341 341 336 326 319 314 307 302 298 295 294 286 264 248 250 237 205 194 199 203 202 201 199 193 189 189 191 191 191 192 192 193 195 196 195 194 194 194 194 195 198 201 202
270 263 253 252 255 252 247 255 263 259 345 4 338 327 331 302 265 252 346 10 5 360 356 1 13 6 350 347 345 335 333 344 352 352 350 353 4 6 358 354 351 346 342 341 342 340 333 324 317 311 306 302 298 294 284 260 241 245 238 209 195 200 203 199 197 196 192 188 189 192 193 193 194 193 194 197 197 194 192 193 194 194 194 196 199 200
312 298 273 262 274 267 241 239 257 252 351 347 332 320 326 320 299 23 49 2 4 14 2 353 5 5 350 346 340 333 336 341 342 353 355 350 359 7 356 350 352 348 343 342 341 338 334 326 319 314 310 307 304 300 291 262 234 239 239 211 198 199 198 194 193 194 191 187 189 193 194 195 195 193 195 198 196 192 191 191 193 194 193 194 197 199
281 289 293 303 320 283 248 237 275 294 327 337 333 320 306 348 57 356 316 291 326 10 2 340 347 350 343 343 336 329 336 342 337 344 352 348 354 2 353 347 350 348 344 341 338 335 331 326 321 315 310 309 305 300 299 282 245 235 233 212 199 194 191 190 190 189 188 187 189 193 195 196 195 195 198 199 195 192 191 191 192 194 193 193 196 197
341 333 316 308 293 286 277 278 295 302 306 314 311 298 296 283 160 246 291 279 279 309 328 311 313 325 330 333 328 323 332 340 334 337 348 348 348 353 350 347 347 345 342 339 336 335 331 325 323 318 314 314 309 303 303 290 255 235 228 210 195 187 187 187 185 185 187 188 189 192 195 197 195 196 199 199 194 191 192 190 190 192 191 191 194 196
340 348 329 295 287 295 286 276 282 294 307 315 306 295 297 290 238 223 253 262 273 281 281 281 291 309 315 314 314 316 322 327 328 335 342 341 341 346 349 345 343 343 342 338 336 335 331 327 326 324 321 319 316 314 315 299 260 228 218 205 190 184 185 185 183 184 186 187 189 193 196 198 197 196 199 199 195 192 192 190 189 191 190 190 193 195
14 4 334 298 297 305 295 287 306 313 313 313 303 294 293 288 275 259 250 256 268 271 276 279 277 284 296 301 303 308 313 317 325 332 334 335 342 345 344 342 341 341 338 332 332 333 330 328 330 329 323 319 318 320 326 320 292 219 198 194 186 184 185 183 182 185 186 187 190 193 197 200 199 197 198 199 196 194 193 191 191 191 189 188 191 193
360 348 326 309 309 300 282 291 322 325 312 299 294 296 300 293 282 272 262 257 256 260 269 272 269 268 278 285 290 300 308 313 321 328 326 331 344 343 339 339 338 337 334 332 333 335 333 331 332 331 323 318 319 324 331 334 329 258 188 187 185 185 188 187 184 185 187 188 190 194 200 202 200 196 196 197 195 194 193 192 192 192 190 189 191 191
323 320 321 320 314 292 280 305 340 337 316 302 309 318 324 315 298 287 275 263 256 257 266 270 269 268 270 271 276 289 300 306 315 322 320 325 341 343 337 336 335 337 342 340 335 334 335 335 334 330 321 316 323 335 341 338 338 338 260 212 205 200 200 196 187 186 188 190 192 198 202 201 198 195 195 195 191 191 193 193 192 191 191 192 194 193
332 323 325 319 307 297 307 331 342 330 308 306 312 310 310 309 301 289 277 268 262 258 262 266 266 266 264 263 271 286 294 295 302 311 313 318 334 339 334 336 340 343 346 342 335 333 337 339 336 330 323 324 334 344 345 339 337 342 334 272 227 221 220 206 190 187 189 191 195 200 202 200 196 193 194 194 188 182 182 185 189 189 189 191 194 194
319 298 304 304 297 298 309 319 322 310 298 300 300 298 298 300 296 286 273 265 262 259 259 261 262 266 268 264 266 278 285 286 291 302 308 311 324 334 335 342 350 347 342 340 338 336 336 337 339 336 331 333 337 337 337 345 351 345 333 301 245 240 233 211 194 190 191 194 199 201 201 200 196 192 193 191 181 173 169 167 173 181 184 186 190 193